| time (UTC) | temp F | wind direction | speed knots | gust knots | rain 1hr in | rain 24hr in | rain mn in | humidity % | barometer mb |
| 20260507213632 | 62 | 299 | 0.0 | 0.0 | 0.00 | 0.00 | 0.00 | 77 | 1015.3 |
| 20260507212632 | 62 | 276 | 0.0 | 0.0 | 0.00 | 0.00 | 0.00 | 79 | 1015.3 |
| 20260507211632 | 62 | 278 | 0.0 | 0.0 | 0.00 | 0.00 | 0.00 | 80 | 1015.3 |
| 20260507210632 | 62 | 244 | 0.0 | 0.0 | 0.00 | 0.00 | 0.00 | 81 | 1015.3 |
| 20260507205632 | 61 | 271 | 0.0 | 0.0 | 0.00 | 0.00 | 0.00 | 82 | 1015.3 |
| 20260507204632 | 61 | 270 | 0.0 | 0.0 | 0.00 | 0.00 | 0.00 | 82 | 1015.4 |
| 20260507203632 | 61 | 195 | 0.0 | 0.0 | 0.00 | 0.00 | 0.00 | 82 | 1015.4 |
| 20260507202632 | 62 | 236 | 0.0 | 0.0 | 0.00 | 0.00 | 0.00 | 79 | 1015.4 |
| 20260507201632 | 62 | 277 | 0.0 | 0.0 | 0.00 | 0.00 | 0.00 | 77 | 1015.4 |
| 20260507200632 | 62 | 300 | 0.0 | 0.0 | 0.00 | 0.00 | 0.00 | 76 | 1015.4 |
| 20260507195632 | 62 | 193 | 0.0 | 0.0 | 0.00 | 0.00 | 0.00 | 76 | 1015.4 |
| 20260507194632 | 62 | 60 | 0.0 | 0.0 | 0.00 | 0.00 | 0.00 | 78 | 1015.4 |
| 20260507193632 | 62 | 60 | 0.0 | 0.0 | 0.00 | 0.00 | 0.00 | 78 | 1015.3 |
| 20260507192632 | 62 | 60 | 0.0 | 0.0 | 0.00 | 0.00 | 0.00 | 79 | 1015.3 |
| 20260507191632 | 62 | 94 | 0.0 | 0.0 | 0.00 | 0.00 | 0.00 | 80 | 1015.2 |
| 20260507190632 | 62 | 94 | 0.0 | 0.0 | 0.00 | 0.00 | 0.00 | 81 | 1015.1 |
| 20260507185632 | 61 | 50 | 0.0 | 0.0 | 0.00 | 0.00 | 0.00 | 83 | 1015.1 |
| 20260507184632 | 62 | 46 | 0.9 | 2.6 | 0.00 | 0.00 | 0.00 | 84 | 1015.2 |
| 20260507183632 | 62 | 89 | 0.9 | 2.6 | 0.00 | 0.00 | 0.00 | 83 | 1015.1 |
| 20260507182632 | 62 | 80 | 0.0 | 0.0 | 0.00 | 0.00 | 0.00 | 83 | 1015.2 |
| 20260507181632 | 62 | 21 | 0.0 | 1.7 | 0.00 | 0.00 | 0.00 | 83 | 1015.1 |
| 20260507180632 | 62 | 15 | 0.0 | 0.9 | 0.00 | 0.00 | 0.00 | 83 | 1014.9 |
| 20260507175632 | 62 | 80 | 0.9 | 2.6 | 0.00 | 0.00 | 0.00 | 81 | 1014.8 |
| 20260507174632 | 62 | 75 | 1.7 | 3.5 | 0.00 | 0.00 | 0.00 | 79 | 1014.8 |
| 20260507173633 | 63 | 69 | 1.7 | 4.3 | 0.00 | 0.00 | 0.00 | 75 | 1014.5 |
| 20260507172632 | 64 | 94 | 0.9 | 3.5 | 0.00 | 0.00 | 0.00 | 70 | 1014.3 |
| 20260507171632 | 64 | 109 | 0.9 | 3.5 | 0.00 | 0.00 | 0.00 | 67 | 1014.2 |
| 20260507170632 | 64 | 51 | 0.0 | 0.0 | 0.00 | 0.00 | 0.00 | 67 | 1014.2 |
| 20260507165632 | 65 | 78 | 0.0 | 0.0 | 0.00 | 0.00 | 0.00 | 67 | 1014.2 |
| 20260507164633 | 65 | 116 | 0.0 | 0.0 | 0.00 | 0.00 | 0.00 | 66 | 1014.2 |
| 20260507163632 | 66 | 102 | 0.0 | 0.0 | 0.00 | 0.00 | 0.00 | 65 | 1013.9 |
| 20260507162632 | 66 | 89 | 0.9 | 2.6 | 0.00 | 0.00 | 0.00 | 63 | 1013.9 |
| 20260507161632 | 66 | 106 | 0.9 | 3.5 | 0.00 | 0.00 | 0.00 | 65 | 1014.0 |
| 20260507160632 | 66 | 103 | 1.7 | 3.5 | 0.00 | 0.00 | 0.00 | 64 | 1014.0 |
| 20260507155632 | 66 | 93 | 1.7 | 4.3 | 0.00 | 0.00 | 0.00 | 66 | 1014.1 |
| 20260507154632 | 66 | 73 | 0.9 | 4.3 | 0.00 | 0.00 | 0.00 | 68 | 1014.2 |
| 20260507153632 | 66 | 83 | 1.7 | 6.1 | 0.00 | 0.00 | 0.00 | 67 | 1014.1 |
| 20260507152632 | 66 | 93 | 2.6 | 6.1 | 0.00 | 0.00 | 0.00 | 66 | 1014.0 |
| 20260507151632 | 67 | 82 | 2.6 | 5.2 | 0.00 | 0.00 | 0.00 | 66 | 1014.0 |
| 20260507150632 | 66 | 75 | 2.6 | 6.1 | 0.00 | 0.00 | 0.00 | 68 | 1014.0 |
| 20260507145632 | 67 | 74 | 2.6 | 6.1 | 0.00 | 0.00 | 0.00 | 67 | 1014.0 |
| 20260507144632 | 66 | 57 | 3.5 | 7.0 | 0.00 | 0.00 | 0.00 | 68 | 1014.1 |
| 20260507143632 | 66 | 86 | 3.5 | 6.1 | 0.00 | 0.00 | 0.00 | 67 | 1014.2 |
| 20260507142632 | 66 | 90 | 4.3 | 7.8 | 0.00 | 0.00 | 0.00 | 66 | 1014.1 |
| 20260507141632 | 67 | 94 | 3.5 | 6.1 | 0.00 | 0.00 | 0.00 | 68 | 1014.3 |
| 20260507140632 | 66 | 85 | 3.5 | 6.1 | 0.00 | 0.00 | 0.00 | 68 | 1014.4 |
| 20260507135632 | 66 | 75 | 3.5 | 7.0 | 0.00 | 0.00 | 0.00 | 67 | 1014.3 |
| 20260507134632 | 66 | 88 | 3.5 | 6.1 | 0.00 | 0.00 | 0.00 | 66 | 1014.2 |
| 20260507133632 | 67 | 73 | 2.6 | 7.8 | 0.00 | 0.00 | 0.00 | 65 | 1014.1 |
| 20260507132632 | 67 | 64 | 4.3 | 8.7 | 0.00 | 0.00 | 0.00 | 67 | 1014.1 |
| 20260507131632 | 67 | 90 | 3.5 | 7.8 | 0.00 | 0.00 | 0.00 | 69 | 1014.2 |
| 20260507130632 | 67 | 84 | 4.3 | 7.8 | 0.00 | 0.00 | 0.00 | 70 | 1014.3 |
| 20260507125632 | 66 | 78 | 5.2 | 8.7 | 0.00 | 0.00 | 0.00 | 70 | 1014.3 |
| 20260507124632 | 67 | 97 | 4.3 | 9.6 | 0.00 | 0.00 | 0.00 | 69 | 1014.3 |
| 20260507123632 | 67 | 91 | 3.5 | 7.8 | 0.00 | 0.00 | 0.00 | 69 | 1014.4 |
| 20260507122632 | 67 | 102 | 5.2 | 10.4 | 0.00 | 0.00 | 0.00 | 67 | 1014.3 |
| 20260507121632 | 67 | 78 | 3.5 | 7.8 | 0.00 | 0.00 | 0.00 | 67 | 1014.4 |
| 20260507120632 | 67 | 84 | 4.3 | 7.0 | 0.00 | 0.00 | 0.00 | 68 | 1014.4 |
| 20260507115632 | 67 | 92 | 4.3 | 7.0 | 0.00 | 0.00 | 0.00 | 69 | 1014.4 |
| 20260507114631 | 67 | 80 | 3.5 | 7.8 | 0.00 | 0.00 | 0.00 | 68 | 1014.3 |
| 20260507113632 | 67 | 87 | 3.5 | 7.8 | 0.00 | 0.00 | 0.00 | 69 | 1014.3 |
| 20260507112631 | 67 | 90 | 3.5 | 7.0 | 0.00 | 0.00 | 0.00 | 69 | 1014.2 |
| 20260507111631 | 66 | 91 | 4.3 | 7.0 | 0.00 | 0.00 | 0.00 | 70 | 1014.3 |
| 20260507110632 | 66 | 85 | 4.3 | 7.8 | 0.00 | 0.00 | 0.00 | 70 | 1014.3 |
| 20260507105632 | 67 | 78 | 3.5 | 8.7 | 0.00 | 0.00 | 0.00 | 69 | 1014.4 |
| 20260507104631 | 67 | 69 | 3.5 | 7.0 | 0.00 | 0.00 | 0.00 | 71 | 1014.5 |
| 20260507103631 | 67 | 91 | 3.5 | 7.0 | 0.00 | 0.00 | 0.00 | 73 | 1014.5 |
| 20260507102632 | 67 | 90 | 5.2 | 8.7 | 0.00 | 0.00 | 0.00 | 74 | 1014.3 |
| 20260507101631 | 67 | 91 | 5.2 | 9.6 | 0.00 | 0.00 | 0.00 | 73 | 1014.4 |
| 20260507100632 | 67 | 82 | 4.3 | 9.6 | 0.00 | 0.00 | 0.00 | 70 | 1014.3 |
| 20260507095631 | 68 | 90 | 4.3 | 9.6 | 0.00 | 0.00 | 0.00 | 71 | 1014.2 |
| 20260507094632 | 67 | 86 | 5.2 | 7.8 | 0.00 | 0.00 | 0.00 | 72 | 1014.2 |
| 20260507093631 | 68 | 105 | 2.6 | 7.0 | 0.00 | 0.00 | 0.00 | 71 | 1014.2 |
| 20260507092631 | 67 | 87 | 2.6 | 6.1 | 0.00 | 0.00 | 0.00 | 69 | 1014.4 |
| 20260507091631 | 67 | 88 | 3.5 | 7.0 | 0.00 | 0.00 | 0.00 | 74 | 1014.5 |
| 20260507090631 | 67 | 66 | 3.5 | 7.0 | 0.00 | 0.00 | 0.00 | 73 | 1014.4 |
| 20260507085631 | 68 | 104 | 1.7 | 4.3 | 0.00 | 0.00 | 0.00 | 70 | 1014.4 |
| 20260507084632 | 67 | 115 | 1.7 | 4.3 | 0.00 | 0.00 | 0.00 | 72 | 1014.5 |
| 20260507083632 | 66 | 87 | 1.7 | 6.1 | 0.00 | 0.00 | 0.00 | 75 | 1014.5 |
| 20260507082631 | 66 | 67 | 1.7 | 5.2 | 0.00 | 0.00 | 0.00 | 76 | 1014.6 |
| 20260507081631 | 66 | 92 | 1.7 | 7.0 | 0.00 | 0.00 | 0.00 | 75 | 1014.5 |
| 20260507080631 | 65 | 93 | 2.6 | 5.2 | 0.00 | 0.00 | 0.00 | 78 | 1014.4 |
| 20260507075631 | 64 | 84 | 1.7 | 5.2 | 0.00 | 0.00 | 0.00 | 81 | 1014.6 |
| 20260507074631 | 63 | 129 | 0.0 | 0.0 | 0.00 | 0.00 | 0.00 | 81 | 1014.6 |
| 20260507073631 | 63 | 148 | 0.0 | 0.0 | 0.00 | 0.00 | 0.00 | 81 | 1014.6 |
| 20260507072631 | 64 | 123 | 0.0 | 0.0 | 0.00 | 0.00 | 0.00 | 80 | 1014.5 |
| 20260507071631 | 65 | 176 | 0.0 | 0.0 | 0.00 | 0.00 | 0.00 | 78 | 1014.4 |
| 20260507070631 | 65 | 276 | 0.0 | 0.0 | 0.00 | 0.00 | 0.00 | 78 | 1014.5 |
| 20260507065631 | 65 | 272 | 0.0 | 0.0 | 0.00 | 0.00 | 0.00 | 79 | 1014.5 |
| 20260507064631 | 64 | 298 | 0.0 | 0.0 | 0.00 | 0.00 | 0.00 | 80 | 1014.5 |
| 20260507063631 | 64 | 102 | 0.0 | 0.0 | 0.00 | 0.00 | 0.00 | 79 | 1014.3 |
| 20260507062631 | 65 | 122 | 0.0 | 0.9 | 0.00 | 0.00 | 0.00 | 80 | 1014.2 |
| 20260507061631 | 63 | 180 | 0.0 | 0.0 | 0.00 | 0.00 | 0.00 | 86 | 1014.5 |
| 20260507060631 | 62 | 180 | 0.0 | 0.0 | 0.00 | 0.00 | 0.00 | 87 | 1014.8 |
| 20260507055631 | 61 | 180 | 0.0 | 0.0 | 0.00 | 0.00 | 0.00 | 87 | 1014.8 |
| 20260507054631 | 61 | 180 | 0.0 | 0.0 | 0.00 | 0.00 | 0.00 | 87 | 1014.7 |
| 20260507053631 | 61 | 158 | 0.0 | 1.7 | 0.00 | 0.00 | 0.00 | 87 | 1014.5 |
| 20260507052631 | 61 | 152 | 0.0 | 1.7 | 0.00 | 0.00 | 0.00 | 87 | 1014.3 |
| 20260507051631 | 61 | 174 | 0.0 | 0.0 | 0.00 | 0.00 | 0.00 | 87 | 1014.2 |
| 20260507050631 | 61 | 229 | 0.0 | 2.6 | 0.00 | 0.00 | 0.00 | 87 | 1014.0 |
| 20260507045631 | 61 | 235 | 0.9 | 3.5 | 0.00 | 0.00 | 0.00 | 88 | 1013.9 |
| 20260507044631 | 61 | 239 | 0.0 | 2.6 | 0.00 | 0.00 | 0.00 | 88 | 1013.8 |
| 20260507043631 | 61 | 190 | 0.0 | 0.0 | 0.00 | 0.00 | 0.00 | 88 | 1013.6 |
| 20260507042631 | 61 | 183 | 0.0 | 0.0 | 0.00 | 0.00 | 0.00 | 87 | 1013.5 |
| 20260507041631 | 61 | 219 | 0.0 | 0.0 | 0.00 | 0.00 | 0.00 | 87 | 1013.5 |
| 20260507040631 | 61 | 232 | 0.0 | 3.5 | 0.00 | 0.00 | 0.00 | 85 | 1013.3 |
| 20260507035631 | 61 | 256 | 0.0 | 0.0 | 0.00 | 0.00 | 0.00 | 84 | 1013.2 |
| 20260507034631 | 61 | 159 | 0.0 | 2.6 | 0.00 | 0.00 | 0.00 | 82 | 1013.1 |
| 20260507033631 | 61 | 236 | 0.0 | 0.0 | 0.00 | 0.00 | 0.00 | 79 | 1013.2 |
| 20260507032631 | 61 | 263 | 0.0 | 0.0 | 0.00 | 0.00 | 0.00 | 79 | 1013.2 |
| 20260507031631 | 61 | 240 | 0.0 | 0.0 | 0.00 | 0.00 | 0.00 | 78 | 1013.0 |
| 20260507030631 | 62 | 195 | 0.0 | 0.0 | 0.00 | 0.00 | 0.00 | 77 | 1012.7 |
| 20260507025631 | 62 | 135 | 0.0 | 0.0 | 0.00 | 0.00 | 0.00 | 76 | 1012.6 |
| 20260507024631 | 62 | 206 | 0.0 | 0.9 | 0.00 | 0.00 | 0.00 | 75 | 1012.5 |
| 20260507023631 | 62 | 184 | 0.0 | 1.7 | 0.00 | 0.00 | 0.00 | 76 | 1012.5 |
| 20260507022632 | 61 | 251 | 0.0 | 0.0 | 0.00 | 0.00 | 0.00 | 77 | 1012.5 |
| 20260507021631 | 62 | 265 | 0.0 | 0.0 | 0.00 | 0.00 | 0.00 | 78 | 1012.4 |
| 20260507020631 | 62 | 211 | 0.0 | 0.0 | 0.00 | 0.00 | 0.00 | 75 | 1012.3 |
| 20260507015631 | 63 | 180 | 0.0 | 0.0 | 0.00 | 0.00 | 0.00 | 74 | 1012.1 |
| 20260507014631 | 63 | 211 | 0.0 | 0.0 | 0.00 | 0.00 | 0.00 | 74 | 1012.0 |
| 20260507013631 | 62 | 249 | 0.0 | 4.3 | 0.00 | 0.00 | 0.00 | 75 | 1012.0 |
| 20260507012631 | 62 | 255 | 0.9 | 4.3 | 0.00 | 0.00 | 0.00 | 77 | 1012.0 |
| 20260507011631 | 62 | 265 | 0.0 | 0.0 | 0.00 | 0.00 | 0.00 | 79 | 1012.1 |
| 20260507010631 | 61 | 240 | 0.0 | 0.0 | 0.00 | 0.00 | 0.00 | 81 | 1012.0 |
| 20260507005631 | 62 | 242 | 0.0 | 0.0 | 0.00 | 0.00 | 0.00 | 81 | 1011.9 |
| 20260507004631 | 62 | 243 | 0.0 | 0.0 | 0.00 | 0.00 | 0.00 | 80 | 1011.9 |
| 20260507003631 | 62 | 48 | 0.0 | 3.5 | 0.00 | 0.00 | 0.00 | 79 | 1011.9 |
| 20260507002631 | 63 | 33 | 0.0 | 0.0 | 0.00 | 0.00 | 0.00 | 77 | 1011.8 |
| 20260507001631 | 63 | 69 | 0.0 | 0.0 | 0.00 | 0.00 | 0.00 | 77 | 1011.8 |
| 20260507000631 | 63 | 118 | 0.0 | 0.0 | 0.00 | 0.00 | 0.00 | 77 | 1012.0 |
| 20260506235631 | 63 | 67 | 0.0 | 0.0 | 0.00 | 0.00 | 0.00 | 77 | 1012.0 |
| 20260506234631 | 64 | 21 | 0.0 | 0.0 | 0.00 | 0.00 | 0.00 | 76 | 1012.1 |
| 20260506233631 | 63 | 100 | 0.0 | 0.0 | 0.00 | 0.00 | 0.00 | 78 | 1012.2 |
| 20260506232631 | 63 | 120 | 0.0 | 0.0 | 0.00 | 0.00 | 0.00 | 80 | 1012.3 |
| 20260506231631 | 64 | 120 | 0.0 | 0.0 | 0.00 | 0.00 | 0.00 | 76 | 1012.3 |
| 20260506230631 | 63 | 120 | 0.0 | 0.0 | 0.00 | 0.00 | 0.00 | 78 | 1012.3 |
| 20260506225631 | 63 | 120 | 0.0 | 0.0 | 0.00 | 0.00 | 0.00 | 79 | 1012.4 |
| 20260506224631 | 64 | 201 | 0.0 | 0.0 | 0.00 | 0.00 | 0.00 | 75 | 1012.3 |
| 20260506223631 | 64 | 174 | 0.0 | 0.0 | 0.00 | 0.00 | 0.00 | 73 | 1012.1 |
| 20260506222631 | 65 | 267 | 1.7 | 4.3 | 0.00 | 0.00 | 0.00 | 70 | 1012.1 |
| 20260506221631 | 65 | 307 | 2.6 | 4.3 | 0.00 | 0.00 | 0.00 | 70 | 1012.1 |
| 20260506220631 | 64 | 301 | 0.0 | 0.0 | 0.00 | 0.00 | 0.00 | 76 | 1012.2 |
| 20260506215631 | 63 | 296 | 0.0 | 0.0 | 0.00 | 0.00 | 0.00 | 78 | 1012.4 |
| 20260506214631 | 63 | 288 | 0.0 | 0.0 | 0.00 | 0.00 | 0.00 | 80 | 1012.4 |